Flag for Germany Weather past 2 weeks in Dortmund, North Rhine-Westphalia, Germany

Now
46 °F

Scattered showers. Partly sunny.


Feels Like: 42 °F
Forecast: 46 / 68 °F
Wind: 9 mph from Northwest

Location: Dortmund / Wickede

Current Time: May 30, 2015 at 12:52:25 PM

Latest Report: May 30, 2015 at 12:20 PM


Visibility: N/A

Pressure: 29.92 "Hg

Humidity: 82%

Dew point: 41 °F

Location of DortmundLocation

Historic Weather in Dortmund — Graph

°F

Dortmund temperature yesterday

Maximum temperature yesterday: 61 °F (at 2:50 PM)
Minimum temperature yesterday: 48 °F (at 5:20 AM)
Average temperature yesterday: 56 °F

Past Weeks' High & Low Weather Summary

 TemperatureHumidityPressure
High68 °F (May 22, 3:50 PM)94% (May 25, 11:50 AM)30.33 "Hg (May 25, 11:50 AM)
Low39 °F (May 16, 5:20 AM)32% (May 21, 3:50 PM)29.62 "Hg (May 18, 7:20 PM)
Average55 °F62%30.04 "Hg
* Reported May 15 11:20 AM — May 30 11:20 AM, Dortmund, Weather by CustomWeather, © 2015

Note: Actual official high and low records may vary slightly from our data, if they occured in-between our weather recording intervals... More about our weather records

Advertising

Dortmund weather history for previous 24 hours

 ConditionsComfort  
Time TempWeatherWind HumidityBarometerVisibility
11:20 AM
Sat, May 30
54 °FSprinkles. Scattered clouds.15 mph58%29.89 "HgN/A
10:50 AM52 °FScattered clouds.15 mph62%29.89 "HgN/A
10:20 AM54 °FScattered clouds.14 mph67%29.89 "HgN/A
9:50 AM50 °FScattered clouds.15 mph71%29.89 "HgN/A
9:20 AM52 °FScattered clouds.15 mph72%29.86 "HgN/A
8:50 AM52 °FScattered clouds.13 mph77%29.86 "HgN/A
8:20 AM50 °FScattered clouds.13 mph76%29.86 "HgN/A
7:50 AM50 °FScattered clouds.12 mph82%29.86 "HgN/A
7:20 AM48 °FScattered clouds.12 mph87%29.83 "HgN/A
6:50 AM48 °FPartly sunny.9 mph87%29.83 "HgN/A
6:20 AM48 °FPartly sunny.9 mph87%29.83 "HgN/A
5:50 AM48 °FPartly cloudy.8 mph87%29.83 "HgN/A
5:20 AM48 °FLight rain. Partly cloudy.7 mph87%29.80 "HgN/A
10:50 PM
Fri, May 29
48 °FLight rain. Partly cloudy.17 mph87%29.74 "HgN/A
10:20 PM55 °FLight rain. Partly sunny.16 mph59%29.74 "HgN/A
9:50 PM55 °FDrizzle. Overcast.15 mph59%29.74 "HgN/A
9:20 PM57 °FOvercast.15 mph51%29.74 "HgN/A
8:50 PM57 °FOvercast.14 mph51%29.74 "HgN/A
8:20 PM57 °FSunny.16 mph51%29.74 "Hg10 mi
7:50 PM57 °FSunny.17 mph48%29.74 "Hg10 mi
7:20 PM59 °FSunny.18 mph45%29.74 "Hg10 mi
6:50 PM59 °FPassing clouds.15 mph48%29.71 "HgN/A
6:20 PM61 °FScattered clouds.15 mph48%29.71 "HgN/A
5:50 PM61 °FScattered clouds.13 mph52%29.74 "HgN/A
5:20 PM61 °FScattered clouds.10 mph55%29.74 "HgN/A
4:50 PM61 °FScattered clouds.16 mph52%29.74 "HgN/A
4:20 PM59 °FScattered clouds.14 mph51%29.77 "HgN/A
3:50 PM61 °FPassing clouds.17 mph52%29.77 "HgN/A
3:20 PM59 °FScattered clouds.15 mph51%29.77 "HgN/A
2:50 PM61 °FScattered clouds.15 mph52%29.77 "HgN/A
2:20 PM59 °FSunny.13 mph51%29.77 "Hg10 mi
1:50 PM59 °FPartly sunny.15 mph55%29.80 "HgN/A
1:20 PM59 °FPartly sunny.13 mph55%29.80 "HgN/A
12:50 PM59 °FScattered clouds.12 mph59%29.80 "HgN/A
12:20 PM57 °FScattered clouds.14 mph59%29.83 "HgN/A
Weather by CustomWeather, © 2015

See weather overviewHow to use our weather pages